Regional Weather Roundup
Issued by NWS Cleveland, OH

Home | Current Version | Previous Version | Graphics & Text | Print | Product List | Glossary On
Versions: 1 2 3 4 5 6 7 8 9 10 11 12 13 14 15 16 17 18 19 20 21 22 23 24 25 26 27 28 29 30 31 32 33 34 35 36 37 38 39 40 41 42 43 44 45 46 47 48 49 50
000
ASUS41 KCLE 241310
RWRCLE
OHIO REGIONAL WEATHER ROUNDUP
NATIONAL WEATHER SERVICE WILMINGTON, OH
900 AM EDT SUN SEP 24 2017

NOTE: "FAIR" INDICATES FEW OR NO CLOUDS BELOW 12,000 FEET WITH NO
SIGNIFICANT WEATHER AND/OR OBSTRUCTIONS TO VISIBILITY.

OHZ001>008-015>018-024>027-034-035-043-044-241400-
   NORTHWEST OHIO

CITY           SKY/WX    TMP DP  RH WIND       PRES   REMARKS
DEFIANCE       FAIR      66  60  81 NE3       30.16R
FINDLAY        FAIR      69  63  81 CALM      30.15S
TOLEDO EXPRESS FAIR      69  64  84 CALM      30.16R
TOLEDO EXEC    FAIR      69  63  81 E5        30.17R
LIMA           FAIR      68  63  84 CALM      30.16R
$$

OHZ009>014-019>023-028>033-038-089-241400-
   NORTHEAST OHIO

CITY           SKY/WX    TMP DP  RH WIND       PRES   REMARKS
CLE-HOPKINS    FAIR      75  63  66 CALM      30.19S
CLE-LAKEFRONT  FAIR      73  63  70 CALM      30.17R
CUY CO. ARPT   SUNNY     73  64  73 E7        30.20R
LORAIN-ELYRIA  FAIR      67  59  75 CALM      30.19R
ASHTABULA      FAIR      70  65  84 CALM      30.21S
AKRON-CANTON   FAIR      74  62  66 SE7       30.19F
WOOSTER        FAIR      68  63  84 CALM      30.20R
MANSFIELD      FAIR      73  63  70 CALM      30.19R
YOUNGSTOWN     FAIR      70  66  87 CALM      30.20S
$$

OHZ042-051>053-060>062-070>072-077>081-241400-
  SOUTHWEST OHIO

CITY           SKY/WX    TMP DP  RH WIND       PRES   REMARKS
CINC-COVINGTON FAIR      70  63  78 E8        30.12R
CINC-LUNKEN    FAIR      66  64  93 N3        30.13R
HAMILTON       FAIR      64  64 100 CALM      30.14R
DAYTON         FAIR      69  60  73 E3        30.15S
WRIGHT-PAT AFB SUNNY     66  63  90 CALM      30.14S
DAYTON GENERAL FAIR      69  58  67 E10       30.13S
WILMINGTON     FAIR      66  61  84 E7        30.15R
$$

OHZ036-037-039>041-045>050-054>059-063>069-073>076-082>088-241400-
  CENTRAL AND SOUTHEAST OHIO

CITY           SKY/WX    TMP DP  RH WIND       PRES   REMARKS
COLUMBUS       FAIR      72  59  63 SE5       30.15R
OSU AIRPORT    FAIR      72  60  66 SE6       30.15S
BOLTON FIELD   SUNNY     68  61  77 SE5       30.16S
RICKENBACK AFB FAIR      65  61  86 CALM      30.15S
NEWARK         FAIR      66  61  84 CALM      30.17R
MARION         FAIR      69  60  73 CALM      30.17S
LANCASTER      FAIR      63  61  93 CALM      30.17R
ZANESVILLE     FAIR      66  59  78 CALM      30.17S
NEW PHILLY     FAIR      66  62  87 CALM      30.19S
$$




USA.gov is the U.S. government's official web portal to all federal, state and local government web resources and services.